Weather History for Galveston, TX

Change the Weather History Date:

Wednesday, October 3, 2012

  Actual Average Record
Temperature  
Mean Temperature 75 °F 78 °F  
Max Temperature 81 °F 84 °F 92 °F (2002)
Min Temperature 68 °F 72 °F 53 °F (1961)
Degree Days  
Heating Degree Days 0 0  
Month to date heating degree days 0 0  
Since 1 July heating degree days 0 0  
Cooling Degree Days 10 13  
Month to date cooling degree days 27 39  
Year to date cooling degree days 3473 2932  
Growing Degree Days 24 (Base 50)    
Moisture  
Dew Point 65 °F    
Average Humidity 75    
Maximum Humidity 87    
Minimum Humidity 62    
Precipitation  
Precipitation 0.00 in 0.20 in 3.21 in (1995)
Month to date precipitation 0.01 0.60  
Year to date precipitation 42.98 37.81  
Snow  
Snow 0.00 in - 0.00 in (2002)
Month to date snowfall 0.0  
Since 1 July snowfall 0.0  
Since 1 September snowfall 0.0  
Snow Depth 0.00 in    
Sea Level Pressure  
Sea Level Pressure 30.01 in    
Wind  
Wind Speed 7 mph (East)    
Max Wind Speed 13 mph    
Max Gust Speed 17 mph    
Visibility 10 miles    
Events      
T = Trace of Precipitation, MM = Missing Value Source: NWS Daily Summary

Daily Weather History Graph

Daily Weather History Graph

Search for Another Location

Airport:

Trip Planner

Search our weather history database for the weather conditions in past years. The results will help you decide how hot, cold, wet, or windy it might be!

Date:

Astronomy

Oct. 03, 2012 Rise Set
Actual Time 7:14 AM CDT 7:02 PM CDT
Civil Twilight 6:50 AM CDT 7:25 PM CDT
Nautical Twilight 6:22 AM CDT 7:53 PM CDT
Astronomical Twilight 5:55 AM CDT 8:20 PM CDT
Moon 9:14 PM CDT (10/3) 10:19 AM CDT (10/3)
Length of Visible Light 12h 35m
Length of Day
11h 48m
Waning Gibbous, 88% of the Moon is Illuminated
Oct 3
Waning Gibbous
Oct 8
Last Quarter
Oct 15
New
Oct 21
First Quarter
Oct 29
Full

Hourly Weather History & Observations

Time (CDT) Temp. Heat Index Dew Point Humidity Pressure Visibility Wind Dir Wind Speed Gust Speed Precip Events Conditions
12:52 AM 69.1 °F - 62.1 °F 78% 29.97 in 10.0 mi NNE 4.6 mph - N/A   Clear
1:52 AM 69.1 °F - 62.1 °F 78% 29.97 in 10.0 mi Calm Calm - N/A   Clear
2:52 AM 70.0 °F - 60.1 °F 71% 29.97 in 10.0 mi NNE 3.5 mph - N/A   Clear
3:52 AM 70.0 °F - 62.1 °F 76% 29.96 in 10.0 mi NE 3.5 mph - N/A   Clear
4:52 AM 68.0 °F - 63.0 °F 84% 29.97 in 10.0 mi NNE 6.9 mph - N/A   Clear
5:52 AM 68.0 °F - 64.0 °F 87% 29.97 in 10.0 mi NNE 4.6 mph - N/A   Clear
6:52 AM 69.1 °F - 64.0 °F 84% 29.99 in 10.0 mi NNE 5.8 mph - N/A   Clear
7:52 AM 70.0 °F - 64.0 °F 81% 29.99 in 10.0 mi NNE 5.8 mph - N/A   Clear
8:52 AM 73.9 °F - 64.9 °F 73% 30.01 in 10.0 mi NE 8.1 mph - N/A   Clear
9:52 AM 77.0 °F - 66.0 °F 69% 30.04 in 10.0 mi NE 9.2 mph - N/A   Clear
10:52 AM 79.0 °F - 66.9 °F 66% 30.04 in 10.0 mi NE 6.9 mph - N/A   Clear
11:52 AM 80.1 °F 82.3 °F 66.9 °F 64% 30.05 in 10.0 mi East 5.8 mph - N/A   Clear
12:52 PM 80.1 °F 82.3 °F 66.9 °F 64% 30.04 in 10.0 mi East 6.9 mph - N/A   Clear
1:52 PM 80.1 °F 82.3 °F 66.9 °F 64% 30.02 in 10.0 mi East 9.2 mph - N/A   Clear
2:52 PM 80.1 °F 82.7 °F 68.0 °F 67% 30.01 in 10.0 mi ESE 10.4 mph - N/A   Clear
3:52 PM 81.0 °F 83.0 °F 66.0 °F 60% 30.00 in 10.0 mi SE 10.4 mph - N/A   Clear
4:52 PM 80.1 °F 82.3 °F 66.9 °F 64% 30.00 in 10.0 mi ESE 10.4 mph - N/A   Clear
5:52 PM 79.0 °F - 66.0 °F 64% 30.01 in 10.0 mi SE 9.2 mph - N/A   Clear
6:52 PM 77.0 °F - 64.9 °F 66% 30.01 in 10.0 mi SE 6.9 mph - N/A   Clear
7:52 PM 75.0 °F - 64.0 °F 69% 30.03 in 10.0 mi SSE 5.8 mph - N/A   Clear
8:52 PM 73.9 °F - 64.0 °F 71% 30.05 in 10.0 mi SSE 5.8 mph - N/A   Clear
9:52 PM 75.2 °F - 64.4 °F 69% 30.06 in 10.0 mi South 6.9 mph - N/A   Clear
10:52 PM 73.9 °F - 63.0 °F 68% 30.08 in 10.0 mi SSE 6.9 mph - N/A   Clear
11:52 PM 73.9 °F - 61.0 °F 64% 30.07 in 10.0 mi South 6.9 mph - N/A   Clear